C/2008 C1 (Chen-Gao) |
Classification: Comet SPK-ID: 1002495 |
[ hide orbit diagram ]
For accurate long-term ephemerides, please instead use our Horizons system.This orbit viewer was implemented using two-body methods, and hence should not be used for determining accurate long-term trajectories (over several years or decades) or planetary encounter circumstances.
Orbital Elements at Epoch 2454530.5 (2008-Mar-05.0) TDB
Reference: JPL 20 (heliocentric ecliptic J2000)
Element | Value | Uncertainty (1-sigma) | Units |
e | .9999875787277857 | 3.1496e-05 | |
a | 101627.5424194194 | 2.5769e+05 | au |
q | 1.262343368866691 | 7.6296e-06 | au |
i | 61.78448722306108 | 0.00014086 | deg |
node | 307.7824714298148 | 0.00031373 | deg |
peri | 180.9286376220151 | 0.00064173 | deg |
M | 359.9999986963771 | 4.9583e-06 | deg |
tp | 2454573.351401846784 (2008-Apr-16.85140185) | 0.00066108 | TDB |
period | 11833563950.35645 32398532.38 | 4.5008e+10 1.232e+08 | d yr |
n | 3.042194232525832E-8 | 1.1571e-07 | deg/d |
Q | 203253.82249547 | 5.1538e+05 | au |
|
| | Orbit Determination Parameters
Additional Information
|
[ show covariance matrix ]
Alternate Designations
Perihelion Year (est.) | New-Style Desig | Roman Numeral | Year/ Letter | 2008.3 | C/2008 C1 | | |
|
|